Location: Bottom School (historical)
(37.9078°N, 89.3593°W)
Time: 18:55:42
(UTC+00:00)

STRAND 1 - Pass Details

Date: 07 April 2023
Orbit: 767 x 779 km, 98.4° (Epoch: 30 May)

Event Time Altitude Azimuth Distance (km) Brightness Sun altitude
Rises 01:43:46 0° 359° (N) 3,244 ? -15.8°
Reaches altitude 10° 01:46:25 10° 347° (NNW) 2,313 ? -16.3°
Maximum altitude 01:50:31 25° 293° (WNW) 1,507 ? -17.0°
Drops below altitude 10° 01:54:36 10° 239° (WSW) 2,303 ? -17.8°
Sets 01:57:15 0° 226° (SW) 3,227 ? -18.2°
